Home   Weather   Brandon   Past weeks

Flag for Canada Past Weather in Brandon, Manitoba, Canada — Yesterday and Last 2 Weeks

Now
-13 °F

Clear.


Feels Like: -31 °F
Forecast: -24 / -7 °F
Wind: 9 mph from West

Location: Brandon

Current Time: Dec 9, 2016 at 9:00:38 pm

Latest Report: Dec 9, 2016 at 8:00 pm


Visibility: 15 mi

Pressure: 30.69 "Hg

Humidity: 76%

Dew Point: -18 °F

Location of BrandonLocation

Past Weather in Brandon — Graph

°F

Brandon Temperature Yesterday

Maximum temperature yesterday: 10 °F (at 12:00 am)
Minimum temperature yesterday: -9 °F (at 11:00 pm)
Average temperature yesterday: 4 °F

High & Low Weather Summary for the Past Weeks

 TemperatureHumidityPressure
High43 °F (Nov 26, 2:00 pm)100% (Nov 24, 7:00 pm)30.72 "Hg (Nov 24, 7:00 pm)
Low-17 °F (Dec 9, 6:00 am)59% (Dec 9, 1:00 pm)29.17 "Hg (Nov 28, 1:48 pm)
Average23 °F87%29.96 "Hg
* Reported Nov 24 7:00 pm — Dec 9 7:00 pm, Brandon, Weather by CustomWeather, © 2016

Note: Actual official high and low records may vary slightly from our data, if they occured in-between our weather recording intervals... More about our weather records

Advertising

Brandon Weather History for the Previous 24 Hours

Scroll right to see more
 ConditionsComfort  
Time TempWeatherWind HumidityBarometerVisibility
7:00 pm
Fri, Dec 9
-13 °FClear.9 mph76%30.70 "Hg15 mi
6:00 pm-11 °FClear.8 mph76%30.71 "Hg15 mi
5:00 pm-9 °FPassing clouds.10 mph70%30.71 "Hg15 mi
4:00 pm-6 °FPassing clouds.13 mph64%30.71 "Hg15 mi
3:00 pm-4 °FLight snow. Partly sunny.15 mph71%30.70 "Hg15 mi
2:00 pm-4 °FLight snow. Partly sunny.12 mph71%30.70 "Hg12 mi
1:00 pm-2 °FLight snow. Partly sunny.12 mph59%30.70 "Hg15 mi
12:00 pm-4 °FLight snow. Partly sunny.9 mph71%30.72 "Hg12 mi
11:00 am-6 °FLight snow. Partly sunny.12 mph77%30.72 "Hg10 mi
10:00 am-9 °FLight snow. Overcast.9 mph77%30.72 "Hg15 mi
9:00 am-13 °FLight snow. Partly sunny.9 mph76%30.71 "Hg12 mi
8:00 am-13 °FLight snow. Passing clouds.10 mph76%30.70 "Hg12 mi
7:00 am-17 °FPassing clouds.10 mph76%30.71 "Hg15 mi
6:00 am-17 °FClear.10 mph76%30.70 "Hg15 mi
5:00 am-15 °FClear.10 mph69%30.70 "Hg15 mi
4:00 am-15 °FClear.12 mph76%30.70 "Hg15 mi
3:00 am-13 °FClear.12 mph76%30.71 "Hg15 mi
2:00 am-13 °FClear.13 mph76%30.71 "Hg15 mi
1:00 am-13 °FClear.10 mph83%30.71 "Hg15 mi
12:00 am-11 °FClear.12 mph76%30.71 "Hg15 mi
11:00 pm
Thu, Dec 8
-9 °FClear.9 mph77%30.71 "Hg15 mi
10:00 pm-8 °FClear.12 mph77%30.71 "Hg15 mi
9:00 pm-6 °FClear.10 mph77%30.70 "Hg15 mi
Weather by CustomWeather, © 2016

See weather overviewHow to use our weather pages